sat.trackr.live / text

‹ back to catalog

STARLINK-3514

NORAD 51731 · 2022-016T

PAYLOAD ACTIVE UNKNOWN

§ Identity

Operator
Country
US
Launch date
2022-02-21
Launch site
AFETR
Launch vehicle
Mass (kg)
RCS (m²)

Purposes: comms

External: N2YO · Heavens-Above · Gunter

§ Orbital elements

Epoch: 2026-05-24T20:29:42.831744Z

Period
95.44 min
Inclination
53.2147°
Eccentricity
0.0001401
Mean motion
15.08839300 rev/d
Perigee alt
538.8 km
Apogee alt
540.7 km
Semi-major
6,917.9 km
B*
6.3601e-5
RAAN
337.2042°
Arg perigee
87.8728°
Mean anomaly
272.2424°
Rev number
23,506

§ Raw data

STARLINK-35141 51731U 22016T   26144.85396796  .00000724  00000+0  63601-4 0  99902 51731  53.2147 337.2042 0001401  87.8728 272.2424 15.08839300235064

JSON: /api/v1/satellites/51731 · /tle

For live sub-satellite position, see the globe view (requires WebGL).

§ Visibility from observer

Set your observer location to see the next 7 days of passes ≥ 10°. The values pass through the URL so the page stays shareable.

No JS? Fill the form by hand. The geolocation button needs JavaScript.